Weather History for KARR - February, 2013

Change the Weather History Date:

Tuesday, February 12, 2013

  Actual Average Record
Temperature  
Mean Temperature 25 °F 24 °F  
Max Temperature 30 °F 32 °F 50 °F (2005)
Min Temperature 20 °F 15 °F -16 °F (2014)
Degree Days  
Heating Degree Days 40 41  
Month to date heating degree days 516 512  
Since 1 July heating degree days 4203 4529  
Cooling Degree Days 0 0  
Month to date cooling degree days 0 0  
Year to date cooling degree days 0 0  
Moisture  
Dew Point 20 °F    
Average Humidity 81    
Maximum Humidity 92    
Minimum Humidity 69    
Precipitation  
Precipitation 0.00 in 0.07 in 0.11 in (2007)
Month to date precipitation 1.36 0.57  
Year to date precipitation 4.50 2.04  
Sea Level Pressure  
Sea Level Pressure 30.05 in    
Wind  
Wind Speed 10 mph (West)    
Max Wind Speed 24 mph    
Max Gust Speed 29 mph    
Visibility 9 miles    
Events      
T = Trace of Precipitation, MM = Missing Value Source: NWS Daily Summary

Daily Weather History Graph

Daily Weather History Graph

Search for Another Location

Airport or City:

Trip Planner

Search our weather history database for the weather conditions in past years. The results will help you decide how hot, cold, wet, or windy it might be!

Date:

Astronomy

Feb. 12, 2013 Rise Set
Actual Time 6:53 AM CST 5:23 PM CST
Civil Twilight 6:24 AM CST 5:52 PM CST
Nautical Twilight 5:51 AM CST 6:25 PM CST
Astronomical Twilight 5:19 AM CST 6:57 PM CST
Moon 7:47 AM CST (2/12) 8:28 PM CST (2/12)
Length of Visible Light 11h 28m
Length of Day
10h 30m
Waxing Crescent, 7% of the Moon is Illuminated
Feb 12
Waxing Crescent
Feb 17
First Quarter
Feb 25
Full
Mar 4
Last Quarter
Mar 11
New

Hourly Weather History & Observations

Time (CST) Temp. Windchill Dew Point Humidity Pressure Visibility Wind Dir Wind Speed Gust Speed Precip Events Conditions
12:52 AM 27.0 °F 15.6 °F 21.0 °F 78% 30.07 in 10.0 mi West 13.8 mph - N/A   Overcast
1:52 AM 26.1 °F 14.5 °F 19.0 °F 75% 30.10 in 10.0 mi West 13.8 mph - N/A   Overcast
2:52 AM 26.1 °F 13.6 °F 19.9 °F 78% 30.10 in 10.0 mi WNW 16.1 mph - N/A   Overcast
3:52 AM 26.1 °F 13.6 °F 19.9 °F 78% 30.10 in 10.0 mi West 16.1 mph - N/A   Overcast
4:52 AM 25.0 °F 11.7 °F 19.0 °F 78% 30.10 in 10.0 mi West 17.3 mph - N/A   Overcast
5:52 AM 24.1 °F 12.0 °F 18.0 °F 77% 30.11 in 10.0 mi WNW 13.8 mph - N/A   Overcast
6:52 AM 25.0 °F 15.5 °F 19.0 °F 78% 30.10 in 10.0 mi WNW 9.2 mph - N/A   Overcast
7:52 AM 25.0 °F 13.1 °F 19.9 °F 81% 30.13 in 10.0 mi West 13.8 mph - N/A   Overcast
8:52 AM 26.1 °F 14.5 °F 19.9 °F 78% 30.11 in 10.0 mi West 13.8 mph - N/A   Overcast
9:52 AM 26.1 °F 15.0 °F 21.0 °F 81% 30.12 in 10.0 mi West 12.7 mph 20.7 mph N/A   Overcast
10:52 AM 27.0 °F 16.7 °F 21.0 °F 78% 30.12 in 10.0 mi West 11.5 mph 17.3 mph N/A   Overcast
11:52 AM 28.0 °F 17.0 °F 21.0 °F 75% 30.08 in 8.0 mi West 13.8 mph 19.6 mph N/A   Overcast
12:52 PM 28.0 °F 17.5 °F 21.0 °F 75% 30.07 in 10.0 mi West 12.7 mph 17.3 mph N/A   Overcast
1:52 PM 28.0 °F 16.5 °F 21.0 °F 75% 30.06 in 10.0 mi West 15.0 mph 19.6 mph N/A   Overcast
2:52 PM 28.9 °F 18.6 °F 21.0 °F 72% 30.05 in 10.0 mi West 12.7 mph - N/A   Overcast
3:52 PM 30.0 °F 22.4 °F 21.0 °F 69% 30.04 in 10.0 mi WSW 8.1 mph - N/A   Mostly Cloudy
4:24 PM 28.4 °F 18.5 °F 21.2 °F 74% 30.01 in 10.0 mi West 11.5 mph - N/A   Scattered Clouds
4:35 PM 28.4 °F 21.2 °F 21.2 °F 74% 30.00 in 10.0 mi West 6.9 mph - N/A   Mostly Cloudy
4:52 PM 28.9 °F 21.1 °F 21.0 °F 72% 30.03 in 10.0 mi WSW 8.1 mph - N/A   Scattered Clouds
5:52 PM 27.0 °F - 21.0 °F 78% 30.01 in 10.0 mi Calm Calm - N/A   Clear
6:52 PM 26.1 °F 21.9 °F 21.0 °F 81% 30.00 in 10.0 mi SSW 3.5 mph - N/A   Clear
7:52 PM 25.0 °F 19.3 °F 21.9 °F 88% 29.99 in 9.0 mi South 4.6 mph - N/A   Clear
8:52 PM 24.1 °F - 21.0 °F 88% 29.98 in 7.0 mi Calm Calm - N/A   Clear
9:52 PM 21.0 °F - 19.0 °F 92% 29.97 in 6.0 mi Calm Calm - N/A   Clear
10:52 PM 21.0 °F - 19.9 °F 96% 29.96 in 6.0 mi Calm Calm - N/A   Clear
11:52 PM 21.0 °F 14.6 °F 19.0 °F 92% 29.94 in 6.0 mi South 4.6 mph - N/A   Clear